| time (UTC) | temp C | wind direction | speed KPH | gust KPH | rain 1hr cm | rain 24hr cm | rain mn cm | humidity % | barometer mb |
| 20260504014328 | 10 | 294 | 1.6 | 1.6 | 0.03 | 0.13 | 0.13 | 84 | 1006.7 |
| 20260504013828 | 10 | 275 | 1.6 | 1.6 | 0.03 | 0.13 | 0.13 | 84 | 1006.8 |
| 20260504013316 | 10 | 152 | 0.0 | 0.0 | 0.03 | 0.13 | 0.13 | 86 | 1006.3 |
| 20260504013041 | 9 | 152 | 0.0 | 0.0 | 0.03 | 0.13 | 0.13 | 85 | 1006.7 |
| 20260504012316 | 9 | 145 | 0.0 | 0.0 | 0.03 | 0.13 | 0.13 | 84 | 1006.5 |
| 20260504011803 | 9 | 145 | 0.0 | 0.0 | 0.03 | 0.13 | 0.13 | 82 | 1006.8 |
| 20260504011303 | 9 | 146 | 0.0 | 0.0 | 0.03 | 0.13 | 0.13 | 85 | 1006.2 |
| 20260504010803 | 10 | 146 | 0.0 | 0.0 | 0.03 | 0.13 | 0.13 | 84 | 1006.3 |
| 20260504010303 | 10 | 146 | 0.0 | 0.0 | 0.03 | 0.13 | 0.13 | 82 | 1006.4 |
| 20260504005804 | 10 | 146 | 0.0 | 0.0 | 0.03 | 0.13 | 0.13 | 81 | 1006.6 |
| 20260504005305 | 10 | 146 | 0.0 | 1.6 | 0.03 | 0.13 | 0.13 | 78 | 1006.4 |
| 20260504004804 | 10 | 146 | 0.0 | 4.8 | 0.03 | 0.13 | 0.13 | 77 | 1006.7 |
| 20260504004527 | 10 | 119 | 1.6 | 4.8 | 0.00 | 0.10 | 0.10 | 76 | 1006.8 |
| 20260504003804 | 10 | 125 | 0.0 | 3.2 | 0.00 | 0.10 | 0.10 | 75 | 1006.7 |
| 20260504003304 | 10 | 133 | 1.6 | 4.8 | 0.00 | 0.10 | 0.10 | 75 | 1006.6 |
| 20260504002804 | 10 | 68 | 0.0 | 4.8 | 0.00 | 0.10 | 0.10 | 75 | 1006.7 |
| 20260504002304 | 10 | 60 | 0.0 | 4.8 | 0.00 | 0.10 | 0.10 | 75 | 1006.5 |
| 20260504001804 | 10 | 57 | 1.6 | 4.8 | 0.00 | 0.10 | 0.10 | 75 | 1006.7 |
| 20260504001303 | 10 | 117 | 0.0 | 6.4 | 0.00 | 0.10 | 0.10 | 74 | 1006.6 |
| 20260504000803 | 11 | 131 | 0.0 | 11.3 | 0.00 | 0.10 | 0.10 | 73 | 1006.6 |
| 20260504000304 | 11 | 140 | 0.0 | 11.3 | 0.00 | 0.10 | 0.10 | 72 | 1006.6 |
| 20260504000248 | 11 | 85 | 1.6 | 9.7 | 0.00 | 0.10 | 0.10 | 71 | 1006.7 |
| 20260503235304 | 11 | 114 | 4.8 | 11.3 | 0.00 | 0.10 | 0.10 | 72 | 1006.5 |
| 20260503234803 | 11 | 334 | 3.2 | 14.5 | 0.00 | 0.10 | 0.10 | 72 | 1006.7 |
| 20260503234304 | 11 | 73 | 1.6 | 14.5 | 0.00 | 0.10 | 0.10 | 72 | 1006.7 |
| 20260503233802 | 10 | 38 | 3.2 | 11.3 | 0.00 | 0.10 | 0.10 | 73 | 1006.8 |
| 20260503233301 | 10 | 44 | 4.8 | 12.9 | 0.00 | 0.10 | 0.10 | 74 | 1006.4 |
| 20260503233019 | 10 | 100 | 1.6 | 12.9 | 0.03 | 0.10 | 0.10 | 75 | 1006.7 |
| 20260503232523 | 10 | 94 | 3.2 | 16.1 | 0.03 | 0.10 | 0.10 | 75 | 1007.0 |
| 20260503231800 | 10 | 59 | 8.0 | 16.1 | 0.03 | 0.10 | 0.10 | 76 | 1006.9 |
| 20260503231521 | 10 | 12 | 4.8 | 12.9 | 0.05 | 0.10 | 0.10 | 78 | 1006.9 |
| 20260503231021 | 10 | 53 | 3.2 | 9.7 | 0.05 | 0.10 | 0.10 | 79 | 1006.9 |
| 20260503230300 | 10 | 101 | 4.8 | 9.7 | 0.05 | 0.10 | 0.10 | 80 | 1007.1 |
| 20260503225801 | 10 | 54 | 6.4 | 9.7 | 0.05 | 0.10 | 0.10 | 80 | 1007.1 |
| 20260503225300 | 10 | 49 | 3.2 | 6.4 | 0.05 | 0.10 | 0.10 | 81 | 1007.2 |
| 20260503224801 | 10 | 67 | 1.6 | 11.3 | 0.08 | 0.10 | 0.10 | 81 | 1007.1 |
| 20260503224518 | 9 | 126 | 4.8 | 11.3 | 0.08 | 0.10 | 0.10 | 80 | 1007.1 |
| 20260503223801 | 9 | 242 | 1.6 | 16.1 | 0.10 | 0.10 | 0.10 | 81 | 1007.2 |
| 20260503223301 | 10 | 52 | 3.2 | 17.7 | 0.10 | 0.10 | 0.10 | 79 | 1007.2 |
| 20260503222749 | 10 | 75 | 9.7 | 17.7 | 0.08 | 0.08 | 0.08 | 78 | 1007.0 |
| 20260503222515 | 10 | 136 | 4.8 | 17.7 | 0.08 | 0.08 | 0.08 | 77 | 1007.6 |
| 20260503221749 | 10 | 336 | 3.2 | 25.7 | 0.08 | 0.08 | 0.08 | 76 | 1007.5 |
| 20260503221243 | 10 | 95 | 14.5 | 25.7 | 0.05 | 0.05 | 0.08 | 76 | 1007.6 |
| 20260503220743 | 9 | 107 | 6.4 | 16.1 | 0.05 | 0.05 | 0.05 | 78 | 1007.3 |
| 20260503220231 | 8 | 92 | 4.8 | 6.4 | 0.05 | 0.05 | 0.05 | 80 | 1007.5 |
| 20260503215731 | 8 | 34 | 0.0 | 3.2 | 0.05 | 0.05 | 0.05 | 78 | 1007.3 |
| 20260503215232 | 8 | 13 | 0.0 | 3.2 | 0.05 | 0.05 | 0.05 | 76 | 1007.3 |
| 20260503214730 | 8 | 349 | 0.0 | 4.8 | 0.03 | 0.03 | 0.03 | 76 | 1007.4 |
| 20260503214230 | 8 | 355 | 1.6 | 4.8 | 0.03 | 0.03 | 0.03 | 75 | 1007.3 |
| 20260503213730 | 8 | 335 | 1.6 | 6.4 | 0.00 | 0.00 | 0.00 | 72 | 1007.5 |
| 20260503213453 | 8 | 141 | 0.0 | 11.3 | 0.00 | 0.00 | 0.00 | 70 | 1007.3 |
| 20260503212729 | 9 | 291 | 3.2 | 11.3 | 0.00 | 0.00 | 0.00 | 66 | 1006.9 |
| 20260503212229 | 9 | 2 | 3.2 | 11.3 | 0.00 | 0.00 | 0.00 | 64 | 1007.1 |
| 20260503211729 | 9 | 51 | 4.8 | 14.5 | 0.00 | 0.00 | 0.00 | 61 | 1006.8 |
| 20260503211229 | 10 | 9 | 3.2 | 14.5 | 0.00 | 0.00 | 0.00 | 59 | 1006.8 |
| 20260503210733 | 10 | 287 | 3.2 | 12.9 | 0.00 | 0.00 | 0.00 | 57 | 1006.9 |
| 20260503210229 | 10 | 355 | 6.4 | 11.3 | 0.00 | 0.00 | 0.00 | 55 | 1006.8 |
| 20260503205728 | 10 | 10 | 4.8 | 11.3 | 0.00 | 0.00 | 0.00 | 56 | 1006.7 |
| 20260503205229 | 10 | 329 | 4.8 | 11.3 | 0.00 | 0.00 | 0.00 | 56 | 1006.6 |
| 20260503204729 | 10 | 354 | 6.4 | 14.5 | 0.00 | 0.00 | 0.00 | 56 | 1006.8 |
| 20260503204229 | 11 | 313 | 3.2 | 14.5 | 0.00 | 0.00 | 0.00 | 56 | 1006.8 |
| 20260503203729 | 11 | 345 | 11.3 | 14.5 | 0.00 | 0.00 | 0.00 | 52 | 1007.0 |
| 20260503203228 | 12 | 25 | 3.2 | 14.5 | 0.00 | 0.00 | 0.00 | 51 | 1007.1 |
| 20260503202728 | 12 | 32 | 4.8 | 11.3 | 0.00 | 0.00 | 0.00 | 48 | 1007.4 |
| 20260503202228 | 12 | 313 | 3.2 | 14.5 | 0.00 | 0.00 | 0.00 | 49 | 1007.1 |
| 20260503201727 | 12 | 324 | 6.4 | 14.5 | 0.00 | 0.00 | 0.00 | 47 | 1007.2 |
| 20260503201227 | 12 | 58 | 8.0 | 12.9 | 0.00 | 0.00 | 0.00 | 46 | 1007.0 |
| 20260503200728 | 12 | 347 | 1.6 | 16.1 | 0.00 | 0.00 | 0.00 | 47 | 1007.1 |
| 20260503200216 | 12 | 58 | 6.4 | 16.1 | 0.00 | 0.00 | 0.00 | 48 | 1007.0 |
| 20260503195715 | 12 | 328 | 6.4 | 11.3 | 0.00 | 0.00 | 0.00 | 47 | 1007.2 |
| 20260503195216 | 12 | 302 | 6.4 | 12.9 | 0.00 | 0.00 | 0.00 | 47 | 1007.2 |
| 20260503194715 | 12 | 328 | 8.0 | 16.1 | 0.00 | 0.00 | 0.00 | 45 | 1007.3 |
| 20260503194216 | 12 | 318 | 11.3 | 16.1 | 0.00 | 0.00 | 0.00 | 47 | 1007.5 |
| 20260503193716 | 12 | 344 | 9.7 | 20.9 | 0.00 | 0.00 | 0.00 | 43 | 1007.7 |
| 20260503193441 | 12 | 30 | 9.7 | 22.5 | 0.00 | 0.00 | 0.00 | 43 | 1007.9 |
| 20260503192704 | 12 | 356 | 4.8 | 25.7 | 0.00 | 0.00 | 0.00 | 43 | 1008.3 |
| 20260503192204 | 12 | 3 | 14.5 | 25.7 | 0.00 | 0.00 | 0.00 | 43 | 1008.1 |
| 20260503191704 | 12 | 336 | 6.4 | 22.5 | 0.00 | 0.00 | 0.00 | 44 | 1008.5 |
| 20260503191159 | 12 | 46 | 14.5 | 24.1 | 0.00 | 0.00 | 0.00 | 41 | 1008.5 |
| 20260503190650 | 12 | 351 | 14.5 | 24.1 | 0.00 | 0.00 | 0.00 | 42 | 1008.5 |
| 20260503190150 | 12 | 21 | 12.9 | 17.7 | 0.00 | 0.00 | 0.00 | 40 | 1008.6 |
| 20260503185915 | 12 | 310 | 6.4 | 17.7 | 0.00 | 0.00 | 0.00 | 40 | 1008.7 |
| 20260503185150 | 12 | 323 | 12.9 | 17.7 | 0.00 | 0.00 | 0.00 | 38 | 1008.7 |
| 20260503184650 | 12 | 49 | 12.9 | 17.7 | 0.00 | 0.00 | 0.00 | 38 | 1008.6 |
| 20260503184149 | 12 | 25 | 3.2 | 12.9 | 0.00 | 0.00 | 0.00 | 35 | 1008.8 |
| 20260503183649 | 12 | 40 | 4.8 | 12.9 | 0.00 | 0.00 | 0.00 | 36 | 1008.9 |
| 20260503183150 | 12 | 346 | 6.4 | 12.9 | 0.00 | 0.00 | 0.00 | 37 | 1008.9 |
| 20260503182650 | 12 | 310 | 3.2 | 16.1 | 0.00 | 0.00 | 0.00 | 36 | 1009.0 |
| 20260503182150 | 12 | 342 | 4.8 | 20.9 | 0.00 | 0.00 | 0.00 | 35 | 1009.0 |
| 20260503181649 | 12 | 15 | 9.7 | 20.9 | 0.00 | 0.00 | 0.00 | 32 | 1009.3 |
| 20260503181149 | 12 | 15 | 9.7 | 17.7 | 0.00 | 0.00 | 0.00 | 34 | 1009.1 |
| 20260503180907 | 12 | 268 | 3.2 | 17.7 | 0.00 | 0.00 | 0.00 | 37 | 1009.2 |
| 20260503180150 | 11 | 344 | 9.7 | 22.5 | 0.00 | 0.00 | 0.00 | 37 | 1009.5 |
| 20260503175649 | 11 | 16 | 8.0 | 22.5 | 0.00 | 0.00 | 0.00 | 37 | 1009.5 |
| 20260503175411 | 11 | 317 | 12.9 | 22.5 | 0.00 | 0.00 | 0.00 | 38 | 1009.7 |
| 20260503174649 | 10 | 0 | 6.4 | 22.5 | 0.00 | 0.00 | 0.00 | 40 | 1009.6 |
| 20260503174407 | 10 | 347 | 4.8 | 22.5 | 0.00 | 0.00 | 0.00 | 44 | 1009.6 |
| 20260503173648 | 10 | 0 | 8.0 | 20.9 | 0.00 | 0.00 | 0.00 | 44 | 1009.8 |
| 20260503173148 | 10 | 10 | 11.3 | 20.9 | 0.00 | 0.00 | 0.00 | 45 | 1010.0 |
| 20260503172914 | 9 | 356 | 6.4 | 14.5 | 0.00 | 0.00 | 0.00 | 47 | 1010.2 |
| 20260503172410 | 9 | 334 | 4.8 | 14.5 | 0.00 | 0.00 | 0.00 | 52 | 1010.2 |
| 20260503171648 | 9 | 331 | 9.7 | 14.5 | 0.00 | 0.00 | 0.00 | 50 | 1010.1 |
| 20260503171410 | 8 | 316 | 6.4 | 16.1 | 0.00 | 0.00 | 0.00 | 53 | 1010.0 |
| 20260503170649 | 8 | 334 | 9.7 | 16.1 | 0.00 | 0.00 | 0.00 | 51 | 1010.3 |
| 20260503170407 | 8 | 354 | 8.0 | 17.7 | 0.00 | 0.00 | 0.00 | 51 | 1010.3 |
| 20260503160148 | 8 | 41 | 8.0 | 16.1 | 0.00 | 0.00 | 0.00 | 53 | 1010.9 |
| 20260503150646 | 8 | 329 | 4.8 | 14.5 | 0.00 | 0.00 | 0.00 | 58 | 1011.3 |
| 20260503150146 | 7 | 327 | 8.0 | 12.9 | 0.00 | 0.00 | 0.00 | 60 | 1011.4 |
| 20260503140145 | 7 | 283 | 4.8 | 11.3 | 0.00 | 0.00 | 0.00 | 54 | 1012.0 |
| 20260503130858 | 6 | 25 | 4.8 | 9.7 | 0.00 | 0.00 | 0.00 | 51 | 1012.0 |
| 20260503130141 | 6 | 100 | 3.2 | 9.7 | 0.00 | 0.00 | 0.00 | 53 | 1011.9 |
| 20260503120140 | 5 | 70 | 1.6 | 3.2 | 0.00 | 0.00 | 0.00 | 56 | 1012.0 |
| 20260503110127 | 0 | 180 | 0.0 | 0.0 | 0.00 | 0.00 | 0.00 | 72 | 1012.2 |
| 20260503100116 | -1 | 173 | 0.0 | 0.0 | 0.00 | 0.00 | 0.00 | 79 | 1011.9 |
| 20260503090114 | -1 | 171 | 0.0 | 1.6 | 0.00 | 0.00 | 0.00 | 77 | 1012.3 |
| 20260503081602 | -1 | 165 | 0.0 | 1.6 | 0.00 | 0.00 | 0.00 | 73 | 1012.5 |
| 20260503081322 | -1 | 169 | 1.6 | 1.6 | 0.00 | 0.00 | 0.00 | 73 | 1012.6 |
| 20260503080820 | -1 | 161 | 0.0 | 1.6 | 0.00 | 0.00 | 0.00 | 73 | 1012.4 |
| 20260503080322 | 0 | 181 | 0.0 | 1.6 | 0.00 | 0.00 | 0.00 | 73 | 1012.6 |
| 20260503072818 | 0 | 170 | 0.0 | 1.6 | 0.00 | 0.00 | 0.00 | 69 | 1012.4 |
| 20260503072100 | 0 | 165 | 0.0 | 1.6 | 0.00 | 0.00 | 0.00 | 69 | 1012.7 |
| 20260503071600 | 0 | 170 | 1.6 | 1.6 | 0.00 | 0.00 | 0.00 | 69 | 1012.6 |
| 20260503071059 | 0 | 164 | 0.0 | 0.0 | 0.00 | 0.00 | 0.00 | 70 | 1012.5 |
| 20260503070559 | 0 | 169 | 0.0 | 0.0 | 0.00 | 0.00 | 0.00 | 70 | 1012.4 |
| 20260503054559 | 0 | 161 | 0.0 | 1.6 | 0.00 | 0.00 | 0.00 | 74 | 1012.9 |
| 20260503054058 | 0 | 162 | 0.0 | 1.6 | 0.00 | 0.00 | 0.00 | 74 | 1012.9 |
| 20260503053558 | 0 | 166 | 0.0 | 3.2 | 0.00 | 0.00 | 0.00 | 75 | 1013.0 |
| 20260503053058 | 0 | 175 | 1.6 | 3.2 | 0.00 | 0.00 | 0.00 | 75 | 1012.8 |
| 20260503052557 | 0 | 167 | 0.0 | 3.2 | 0.00 | 0.00 | 0.00 | 75 | 1012.9 |
| 20260503052057 | 0 | 143 | 1.6 | 3.2 | 0.00 | 0.00 | 0.00 | 76 | 1013.1 |
| 20260503051558 | 0 | 171 | 1.6 | 1.6 | 0.00 | 0.00 | 0.00 | 76 | 1013.1 |
| 20260503051542 | 0 | 173 | 1.6 | 1.6 | 0.00 | 0.00 | 0.00 | 77 | 1013.0 |
| 20260503050558 | 0 | 163 | 0.0 | 1.6 | 0.00 | 0.00 | 0.00 | 77 | 1013.1 |
| 20260503050058 | 0 | 164 | 0.0 | 0.0 | 0.00 | 0.00 | 0.00 | 77 | 1012.9 |
| 20260503045557 | 0 | 163 | 0.0 | 0.0 | 0.00 | 0.00 | 0.00 | 77 | 1013.2 |
| 20260503045316 | 0 | 146 | 0.0 | 0.0 | 0.00 | 0.00 | 0.00 | 76 | 1013.2 |
| 20260503044558 | 0 | 156 | 0.0 | 0.0 | 0.00 | 0.00 | 0.00 | 76 | 1013.1 |
| 20260503044536 | 1 | 165 | 0.0 | 0.0 | 0.00 | 0.00 | 0.00 | 75 | 1013.2 |
| 20260503043558 | 1 | 169 | 0.0 | 1.6 | 0.00 | 0.00 | 0.00 | 75 | 1013.3 |
| 20260503043058 | 1 | 156 | 0.0 | 1.6 | 0.00 | 0.00 | 0.00 | 75 | 1013.4 |
| 20260503042817 | 1 | 165 | 0.0 | 1.6 | 0.00 | 0.00 | 0.00 | 75 | 1013.4 |
| 20260503042321 | 1 | 155 | 0.0 | 1.6 | 0.00 | 0.00 | 0.00 | 75 | 1013.1 |
| 20260503041821 | 1 | 176 | 0.0 | 0.0 | 0.00 | 0.00 | 0.00 | 75 | 1013.3 |
| 20260503041058 | 1 | 159 | 0.0 | 0.0 | 0.00 | 0.00 | 0.00 | 75 | 1013.4 |
| 20260503040558 | 1 | 147 | 0.0 | 1.6 | 0.00 | 0.00 | 0.00 | 74 | 1013.6 |
| 20260503040057 | 1 | 162 | 0.0 | 1.6 | 0.00 | 0.00 | 0.00 | 74 | 1013.2 |
| 20260503035557 | 1 | 166 | 1.6 | 1.6 | 0.00 | 0.00 | 0.00 | 74 | 1013.4 |
| 20260503035056 | 1 | 161 | 0.0 | 3.2 | 0.00 | 0.00 | 0.00 | 74 | 1013.4 |
| 20260503034556 | 1 | 187 | 0.0 | 3.2 | 0.00 | 0.00 | 0.00 | 73 | 1013.3 |
| 20260503034056 | 1 | 174 | 3.2 | 3.2 | 0.00 | 0.00 | 0.00 | 73 | 1013.5 |
| 20260503033824 | 1 | 143 | 0.0 | 1.6 | 0.00 | 0.00 | 0.00 | 73 | 1013.3 |
| 20260503033056 | 1 | 156 | 0.0 | 3.2 | 0.00 | 0.00 | 0.00 | 73 | 1013.4 |
| 20260503032557 | 1 | 159 | 3.2 | 3.2 | 0.00 | 0.00 | 0.00 | 73 | 1013.5 |
| 20260503032057 | 1 | 167 | 1.6 | 1.6 | 0.00 | 0.00 | 0.00 | 72 | 1013.2 |
| 20260503031557 | 1 | 156 | 0.0 | 1.6 | 0.00 | 0.00 | 0.00 | 72 | 1013.2 |
| 20260503031057 | 1 | 154 | 1.6 | 1.6 | 0.00 | 0.00 | 0.00 | 72 | 1013.4 |
| 20260503030815 | 2 | 170 | 1.6 | 1.6 | 0.00 | 0.00 | 0.00 | 71 | 1013.3 |
| 20260503030056 | 2 | 163 | 1.6 | 1.6 | 0.00 | 0.00 | 0.00 | 70 | 1013.3 |
| 20260503025556 | 2 | 160 | 0.0 | 0.0 | 0.00 | 0.00 | 0.00 | 70 | 1013.3 |
| 20260503025044 | 2 | 160 | 0.0 | 1.6 | 0.00 | 0.00 | 0.00 | 69 | 1013.3 |
| 20260503024543 | 2 | 160 | 0.0 | 1.6 | 0.00 | 0.00 | 0.00 | 69 | 1013.5 |
| 20260503024043 | 2 | 113 | 0.0 | 0.0 | 0.00 | 0.00 | 0.00 | 69 | 1013.4 |
| 20260503023544 | 2 | 112 | 0.0 | 0.0 | 0.00 | 0.00 | 0.00 | 68 | 1013.4 |
| 20260503023044 | 2 | 113 | 0.0 | 0.0 | 0.00 | 0.00 | 0.00 | 68 | 1013.4 |
| 20260503022544 | 2 | 41 | 0.0 | 0.0 | 0.00 | 0.00 | 0.00 | 66 | 1013.6 |
| 20260503022043 | 2 | 109 | 0.0 | 0.0 | 0.00 | 0.00 | 0.00 | 65 | 1013.4 |
| 20260503021543 | 2 | 109 | 0.0 | 0.0 | 0.00 | 0.00 | 0.00 | 66 | 1013.6 |
| 20260503021044 | 2 | 109 | 0.0 | 0.0 | 0.00 | 0.00 | 0.00 | 67 | 1013.5 |
| 20260503020544 | 2 | 33 | 0.0 | 0.0 | 0.00 | 0.00 | 0.00 | 66 | 1013.7 |
| 20260503020044 | 2 | 33 | 0.0 | 0.0 | 0.00 | 0.00 | 0.00 | 64 | 1013.7 |
| 20260503015544 | 2 | 33 | 0.0 | 0.0 | 0.00 | 0.00 | 0.00 | 64 | 1013.6 |
| 20260503015306 | 2 | 33 | 0.0 | 0.0 | 0.00 | 0.00 | 0.00 | 63 | 1013.7 |